Regional Weather Roundup
Issued by NWS

Home | Current Version | Previous Version | Text Only | Print | Product List | Glossary Off
Versions: 1 2 3 4 5 6 7 8 9 10 11 12 13 14 15 16 17 18 19 20 21 22 23 24 25 26 27 28 29 30 31 32 33 34 35 36 37 38 39 40 41 42 43 44 45 46 47 48 49 50

418
ASUS43 KFSD 251802
RWRSD

WEATHER ROUNDUP FOR SOUTH DAKOTA
NATIONAL WEATHER SERVICE SIOUX FALLS SD
100 PM CDT SAT MAR 25 2017

NOTE: "FAIR" INDICATES FEW OR NO CLOUDS BELOW 12,000 FEET WITH NO
SIGNIFICANT WEATHER AND/OR OBSTRUCTIONS TO VISIBILITY.


SDZ001>005-009-010-012>017-251900-
NORTHWEST AND NORTH CENTRAL SOUTH DAKOTA

CITY           SKY/WX    TMP DP  RH WIND       PRES   REMARKS
BUFFALO          N/A     55  34  45 NW10      29.85F
FAITH            N/A     50  33  52 MISG      29.93F
MOBRIDGE       CLOUDY    39  31  72 S15       30.02F
$$

SDZ012>016-024>037-041>051-057-063-072>074-251900-
SOUTHWEST AND SOUTH CENTRAL SOUTH DAKOTA

CITY           SKY/WX    TMP DP  RH WIND       PRES   REMARKS
RAPID CTY ARPT FAIR      61  33  35 SE10      29.90F
PIERRE         FAIR      41  33  73 S10       30.02F
CUSTER         FAIR      57  26  30 VRB6      29.93F
ELLSWORTH AFB  FAIR      61  33  35 SE5       29.90S
PHILIP         FAIR      59  31  34 SE16G25   29.94F
PINE RIDGE     FAIR      64  31  28 S17       29.92F
SPEARFISH      FAIR      59  32  36 N14       29.93S
WINNER         FAIR      50  35  56 VRB3      30.03F
$$

SDZ004>011-016>023-039-040-251900-
NORTHEAST SOUTH DAKOTA

CITY           SKY/WX    TMP DP  RH WIND       PRES   REMARKS
ABERDEEN       CLOUDY    38  30  73 SE12      30.10F
WATERTOWN      CLOUDY    36  32  85 E10       30.08F
BROOKINGS      CLOUDY    37  33  85 E12       30.07F
SISSETON         N/A     36  32  85 SE13      30.13F
$$

SDZ017-020-022-023-036>040-048>070-251900-
SOUTHEAST SOUTH DAKOTA

CITY           SKY/WX    TMP DP  RH WIND       PRES   REMARKS
SIOUX FALLS    CLOUDY    41  37  86 E13       30.07F
HURON          CLOUDY    39  32  76 E8        30.08F
CHAMBERLAIN    FAIR      45  35  67 E6        30.05F
MITCHELL       CLOUDY    38  34  85 E7        30.09F
YANKTON        CLOUDY    39  36  87 N10       30.06F
$$

ABBREVIATIONS USED IN REMARKS
   TC - TEMPERATURE IN CELSIUS
  WCI - WIND CHILL INDEX
   HX - HEAT INDEX
  VSB - VISIBILITY





USA.gov is the U.S. government's official web portal to all federal, state and local government web resources and services.